Wind_Speed
19 19 19 19 20 20 18 21 14 8 9 14 12 15 29 31 36 34 28 28 27 25 21 22 22 19 19 19 20 24 23 20 18 18 15 14 12 16 14 11 12 9 11
20 19 20 20 21 21 20 16 16 6 4 9 15 14 13 33 36 34 32 25 22 28 29 28 23 22 14 18 20 24 24 23 22 20 20 18 14 14 16 15 14 13 15
20 20 20 22 22 21 21 18 16 13 10 9 11 16 9 13 19 25 28 18 23 25 28 31 28 25 24 20 20 24 25 27 27 24 22 17 20 19 18 17 15 17 18
20 19 17 18 19 21 21 19 16 14 14 12 12 13 13 11 13 17 20 24 25 25 24 21 27 26 23 23 24 25 26 30 30 28 26 23 22 21 17 20 20 22 21
22 20 17 15 17 17 20 19 18 15 14 15 13 9 10 6 3 3 4 12 23 26 28 28 25 24 26 30 27 27 26 24 29 32 30 28 27 24 20 20 23 25 23
23 22 19 18 18 18 17 20 19 17 13 15 17 17 15 12 10 8 8 8 10 12 13 15 18 25 29 31 30 23 24 29 30 34 35 34 28 26 24 25 22 21 29
28 27 24 22 20 20 20 20 21 21 19 16 15 17 18 18 17 16 17 19 17 15 16 17 18 19 17 22 24 22 24 24 27 31 34 35 31 29 24 25 25 20 19
24 27 28 27 26 26 24 23 22 22 22 21 20 20 20 21 20 20 20 22 21 21 24 22 20 19 17 16 18 23 26 30 31 30 28 35 34 32 31 31 29 30 25
23 24 27 30 30 28 28 26 25 24 23 23 23 24 23 23 23 24 24 24 24 25 25 24 23 24 22 20 20 23 24 24 32 33 27 27 29 32 32 35 34 33 28
27 30 30 30 30 32 32 29 28 28 26 25 24 24 25 25 26 26 25 25 26 25 26 26 25 27 27 25 25 26 26 28 25 25 29 36 35 36 34 34 34 36 34
36 37 39 35 30 30 31 32 32 31 31 28 25 26 26 26 27 27 26 27 28 28 29 29 28 29 31 31 30 30 30 30 30 30 27 25 27 31 36 40 32 33 34
40 41 39 38 36 34 32 32 32 32 33 32 31 29 27 28 28 28 30 30 30 29 29 29 30 30 31 33 35 35 34 33 31 33 33 31 30 29 30 31 32 36 35
42 40 38 36 37 37 35 33 34 34 34 34 33 32 32 31 30 31 32 32 32 32 33 33 34 34 34 36 38 39 39 39 37 33 33 34 34 34 33 32 32 31 38
40 37 35 35 36 37 39 39 39 40 41 41 39 37 35 34 35 35 34 34 34 35 36 36 37 38 39 37 37 39 40 38 37 36 37 35 34 38 37 35 35 34 31
40 38 36 34 32 32 34 35 36 37 38 36 37 37 37 36 38 38 38 38 38 38 39 39 38 39 42 43 43 41 41 41 39 38 38 39 38 36 38 38 36 34 29
36 34 33 32 31 30 30 31 32 33 35 34 35 36 36 36 37 39 41 41 40 40 41 40 40 41 42 44 44 43 41 41 40 40 39 40 40 40 38 39 37 36 38
35 33 33 34 35 34 35 36 34 36 38 39 41 41 39 39 41 41 42 42 43 42 42 41 41 41 42 43 44 45 45 44 44 44 43 43 42 40 40 38 39 37 41
37 37 37 36 37 37 38 38 38 38 38 40 42 45 44 44 44 45 45 45 44 43 43 43 43 43 43 42 43 44 46 47 46 47 47 45 43 41 40 37 37 39 42
36 36 37 39 40 41 42 43 43 44 45 45 45 48 50 51 51 50 48 46 44 45 45 45 45 45 46 46 45 45 46 47 48 47 47 45 42 40 38 37 36 39 41
39 40 42 44 45 45 45 46 47 47 47 49 50 50 49 49 50 51 51 49 47 45 45 45 46 46 46 46 46 46 46 48 48 48 45 44 41 39 37 36 37 38 40
43 44 45 45 45 46 48 49 51 53 54 55 57 58 59 56 53 53 52 51 49 47 46 45 44 44 46 47 49 50 50 48 48 48 45 45 42 37 36 37 37 38 37
44 44 45 46 48 49 51 54 55 57 58 58 56 52 51 49 48 46 46 47 48 48 47 45 45 45 44 45 45 45 45 45 44 47 44 44 43 38 34 37 37 38 37
43 45 46 47 49 51 52 54 52 47 45 44 44 42 42 42 41 40 38 39 39 41 42 43 43 42 43 40 40 40 39 39 41 42 43 42 42 40 36 37 37 38 36
44 44 45 46 48 48 47 47 43 40 38 35 34 32 31 31 32 34 35 36 36 36 36 37 37 37 37 38 39 39 37 35 36 37 37 36 38 37 35 37 37 36 35
40 42 42 41 42 45 45 43 35 35 33 32 32 30 29 27 26 26 27 28 29 30 31 32 32 33 35 36 36 35 36 37 35 36 35 33 34 36 37 36 35 34 38
37 37 38 39 40 41 38 37 31 31 31 30 28 28 28 27 25 25 25 26 26 27 27 29 32 35 35 34 32 34 34 31 32 36 35 35 36 36 38 34 34 36 45
Wind_Direction
339 344 344 339 332 337 347 355 352 294 288 283 273 279 245 225 232 223 222 229 228 239 238 253 260 256 248 251 254 254 242 239 243 249 243 233 227 228 230 238 252 254 259
334 339 342 342 341 339 344 349 1 348 313 300 253 280 214 210 223 214 216 232 230 241 246 251 252 252 256 256 255 256 247 245 244 243 252 248 227 252 222 233 248 255 253
324 332 339 339 337 336 333 340 343 354 353 311 280 257 225 220 223 223 223 240 249 249 256 253 251 255 262 260 265 264 252 245 247 250 252 240 237 244 236 236 243 247 256
319 320 331 332 333 331 334 329 327 327 322 337 340 277 253 249 238 233 241 243 242 253 260 265 250 254 258 261 260 263 251 251 244 249 252 252 250 254 250 244 242 243 248
315 309 319 321 326 331 325 324 324 311 303 303 294 296 294 292 246 213 291 240 262 258 262 263 268 257 258 257 262 254 252 244 241 242 246 252 254 257 259 261 247 247 247
316 301 308 311 310 316 323 320 316 311 298 284 281 283 280 277 270 302 312 259 259 266 251 248 260 268 263 258 255 253 249 251 243 242 240 246 248 258 264 267 265 262 245
314 307 304 303 305 309 311 315 313 307 298 291 282 277 277 275 268 263 259 263 258 262 267 263 263 281 272 268 253 255 254 251 241 244 250 253 247 250 256 261 263 254 261
305 300 302 303 302 303 304 306 305 303 299 290 284 277 271 267 268 266 260 260 262 266 278 280 276 274 276 262 253 261 265 259 251 244 258 251 253 252 255 254 256 257 258
297 293 289 286 288 288 288 289 295 293 293 291 285 282 279 275 269 266 263 261 260 261 262 266 272 276 277 271 265 261 267 268 256 255 249 247 250 253 259 256 253 254 251
298 298 296 286 281 280 279 281 282 287 285 286 286 281 278 277 275 270 268 270 266 261 262 263 267 271 274 274 271 267 267 271 273 266 260 255 254 256 259 265 262 247 250
303 303 301 295 286 283 282 280 278 279 280 278 279 281 279 274 271 271 268 263 261 262 262 264 264 267 272 273 274 274 273 269 267 270 269 272 260 258 255 265 254 246 247
300 300 296 290 286 286 285 281 279 276 276 274 274 275 276 275 273 270 268 265 263 263 264 266 269 272 273 271 271 272 275 274 270 267 266 265 264 262 261 265 265 242 246
298 296 294 290 284 280 278 278 278 278 278 277 274 272 273 273 271 269 268 266 266 265 265 265 268 271 272 273 273 272 271 272 274 273 270 266 264 266 266 263 264 257 247
298 296 293 288 285 283 281 277 277 279 278 277 274 271 271 272 272 268 265 266 267 266 265 265 266 267 268 267 266 267 269 271 272 273 273 272 270 266 265 265 265 260 264
302 300 297 293 288 285 282 279 277 277 277 275 274 273 272 270 269 268 267 267 266 266 266 266 264 264 265 267 267 266 265 268 270 270 271 272 272 269 266 264 264 257 260
302 302 299 296 293 290 287 285 286 283 283 281 277 275 275 274 272 271 270 269 267 265 265 265 264 262 261 263 268 270 269 268 269 270 270 270 270 271 268 264 261 254 255
300 298 296 294 293 291 288 286 283 283 282 282 280 277 275 273 273 271 271 270 270 268 267 265 264 262 262 261 262 265 266 264 266 269 269 269 269 267 269 265 258 253 253
298 297 296 294 292 291 290 288 286 285 282 281 281 280 278 275 273 271 270 269 269 269 268 266 264 263 263 261 260 260 262 263 264 266 267 266 267 267 266 265 259 253 254
298 299 300 298 296 295 292 289 288 287 285 281 278 277 277 278 276 274 272 270 267 265 265 265 265 265 266 265 263 261 260 259 260 262 264 263 265 263 262 262 259 254 250
302 302 301 300 299 298 296 294 291 290 288 287 284 280 276 275 274 273 272 270 269 266 264 264 264 264 263 263 262 260 257 255 255 257 259 259 261 259 257 260 258 250 248
300 300 300 299 298 298 297 296 293 291 289 286 283 280 278 277 274 271 270 269 267 265 264 263 263 262 264 264 264 260 256 253 252 250 253 252 253 255 253 254 257 252 247
301 301 301 300 299 298 298 296 295 294 290 287 285 283 279 276 273 270 267 264 262 262 262 263 264 264 263 267 264 258 254 253 249 246 249 248 248 250 254 253 253 253 243
301 302 303 303 303 304 303 303 302 297 293 290 287 284 280 275 271 269 268 266 265 263 262 262 263 264 266 264 261 258 254 250 247 245 247 245 243 245 253 251 251 248 241
306 307 307 307 307 309 308 305 301 298 295 288 289 289 286 280 274 271 269 268 267 266 264 262 261 261 261 259 258 255 252 250 248 245 244 240 240 242 247 246 250 244 241
310 311 310 309 310 312 315 312 301 298 301 297 290 284 283 281 278 274 271 269 267 265 265 266 264 263 261 257 256 255 251 246 245 241 238 237 237 241 242 242 240 237 236
312 312 313 313 314 313 312 321 306 307 308 304 292 282 274 273 272 273 272 274 272 271 268 267 267 268 262 259 254 249 250 256 246 242 231 230 236 241 243 237 231 231 229
Height
5890 5884 5881 5878 5873 5868 5863 5857 5851 5850 5848 5847 5846 5844 5842 5850 5854 5858 5861 5863 5865 5864 5865 5866 5866 5867 5870 5871 5873 5874 5876 5877 5877 5876 5876 5877 5877 5877 5877 5877 5877 5876 5878
5886 5882 5879 5875 5870 5865 5862 5859 5854 5851 5850 5848 5846 5846 5844 5845 5848 5851 5855 5854 5857 5860 5862 5862 5861 5858 5864 5865 5866 5867 5870 5872 5871 5871 5871 5871 5869 5871 5872 5872 5873 5875 5877
5883 5880 5876 5873 5869 5865 5861 5858 5855 5850 5848 5847 5845 5843 5845 5845 5846 5849 5850 5851 5851 5855 5856 5855 5855 5856 5858 5861 5861 5862 5864 5866 5866 5865 5866 5866 5867 5868 5868 5868 5869 5870 5872
5879 5877 5875 5872 5868 5864 5861 5857 5854 5852 5848 5845 5843 5843 5842 5842 5844 5843 5844 5844 5845 5846 5847 5848 5849 5850 5851 5853 5854 5855 5856 5858 5859 5860 5860 5861 5861 5861 5862 5864 5865 5864 5867
5874 5871 5870 5869 5866 5863 5860 5857 5854 5852 5849 5845 5843 5843 5842 5839 5838 5836 5836 5837 5837 5839 5840 5841 5841 5843 5844 5846 5847 5846 5848 5849 5851 5852 5853 5854 5856 5858 5858 5858 5859 5860 5861
5869 5866 5864 5863 5862 5860 5858 5855 5852 5850 5848 5845 5843 5840 5838 5836 5834 5834 5833 5834 5834 5834 5834 5835 5835 5835 5835 5836 5838 5839 5839 5840 5841 5843 5845 5847 5849 5851 5852 5852 5852 5851 5852
5864 5861 5859 5857 5856 5855 5853 5851 5848 5844 5842 5841 5839 5837 5835 5833 5832 5831 5831 5830 5830 5830 5830 5830 5830 5830 5827 5828 5830 5832 5833 5833 5835 5836 5839 5839 5841 5844 5846 5846 5846 5845 5846
5862 5859 5854 5851 5849 5848 5847 5845 5843 5840 5837 5834 5833 5832 5831 5829 5827 5826 5826 5826 5826 5825 5825 5824 5824 5823 5823 5823 5824 5825 5825 5826 5827 5829 5830 5831 5834 5835 5837 5838 5839 5839 5840
5857 5855 5852 5848 5843 5841 5840 5838 5837 5835 5832 5830 5827 5824 5822 5821 5820 5820 5819 5819 5819 5819 5820 5819 5817 5816 5816 5818 5819 5819 5819 5817 5818 5821 5822 5823 5825 5826 5827 5829 5831 5831 5832
5850 5848 5845 5842 5837 5834 5832 5830 5828 5827 5825 5822 5820 5818 5816 5813 5812 5811 5812 5812 5812 5812 5812 5811 5811 5810 5809 5811 5812 5812 5811 5811 5811 5812 5813 5815 5816 5817 5818 5820 5819 5823 5824
5838 5836 5832 5829 5826 5824 5821 5819 5818 5817 5817 5815 5813 5810 5809 5807 5805 5805 5804 5804 5803 5803 5803 5803 5803 5802 5802 5802 5803 5803 5803 5804 5804 5804 5805 5805 5806 5807 5808 5810 5810 5812 5814
5828 5825 5820 5817 5814 5812 5810 5809 5807 5807 5806 5805 5804 5802 5800 5798 5797 5796 5795 5795 5795 5796 5796 5796 5796 5795 5795 5795 5794 5793 5795 5795 5795 5796 5796 5797 5797 5797 5796 5798 5800 5801 5803
5817 5814 5810 5805 5802 5800 5799 5798 5797 5795 5795 5794 5793 5792 5791 5789 5788 5787 5786 5785 5785 5785 5785 5785 5785 5785 5785 5784 5784 5783 5784 5784 5784 5785 5786 5786 5785 5785 5787 5789 5791 5791 5792
5804 5801 5798 5795 5791 5788 5786 5786 5785 5783 5782 5781 5781 5780 5779 5778 5776 5775 5775 5775 5775 5774 5774 5775 5775 5774 5774 5774 5774 5772 5772 5773 5774 5773 5773 5774 5773 5774 5776 5777 5778 5781 5781
5791 5787 5784 5781 5779 5777 5775 5773 5772 5770 5768 5768 5767 5766 5766 5765 5763 5763 5763 5763 5763 5763 5762 5762 5762 5762 5761 5761 5761 5761 5761 5761 5762 5762 5762 5762 5762 5763 5764 5766 5767 5768 5770
5779 5775 5773 5770 5769 5767 5765 5763 5760 5759 5757 5755 5755 5754 5753 5752 5751 5750 5749 5749 5750 5749 5749 5748 5748 5748 5748 5748 5747 5748 5749 5749 5749 5749 5750 5751 5751 5752 5753 5754 5755 5757 5759
5769 5767 5765 5762 5759 5756 5754 5752 5752 5749 5745 5743 5740 5739 5739 5739 5737 5737 5735 5734 5733 5733 5734 5734 5734 5733 5734 5734 5734 5733 5733 5734 5734 5736 5737 5738 5739 5740 5740 5742 5744 5744 5747
5760 5757 5754 5751 5747 5744 5741 5739 5736 5735 5733 5730 5726 5723 5723 5722 5721 5721 5720 5720 5719 5718 5717 5717 5718 5717 5718 5719 5720 5720 5720 5719 5720 5721 5722 5724 5725 5726 5728 5729 5731 5733 5736
5750 5747 5743 5739 5735 5732 5728 5725 5722 5719 5717 5715 5714 5710 5706 5704 5703 5703 5703 5702 5702 5701 5700 5701 5701 5701 5702 5702 5704 5705 5705 5705 5704 5707 5708 5709 5712 5713 5715 5716 5718 5722 5724
5740 5735 5732 5727 5722 5718 5714 5710 5706 5703 5700 5697 5694 5691 5689 5687 5685 5683 5682 5683 5683 5684 5684 5684 5684 5684 5684 5684 5685 5687 5688 5689 5690 5691 5694 5696 5698 5700 5702 5704 5706 5708 5712
5729 5724 5719 5714 5708 5704 5699 5695 5690 5686 5682 5678 5675 5671 5668 5666 5665 5664 5664 5663 5664 5665 5665 5666 5666 5667 5667 5667 5667 5667 5669 5672 5673 5676 5679 5682 5684 5687 5688 5690 5693 5695 5698
5716 5711 5706 5701 5695 5690 5684 5678 5673 5668 5662 5657 5653 5650 5646 5645 5644 5644 5644 5644 5644 5645 5646 5648 5649 5649 5650 5650 5649 5650 5652 5654 5657 5660 5664 5667 5671 5674 5676 5678 5680 5683 5687
5704 5698 5692 5686 5681 5675 5668 5661 5655 5649 5644 5639 5635 5632 5629 5627 5627 5627 5627 5627 5628 5629 5630 5631 5632 5633 5634 5634 5635 5636 5638 5640 5642 5646 5650 5653 5656 5661 5664 5666 5668 5670 5674
5691 5686 5680 5674 5668 5661 5654 5647 5640 5635 5629 5625 5622 5619 5616 5614 5613 5613 5613 5614 5614 5615 5616 5616 5617 5619 5620 5620 5621 5623 5625 5627 5631 5633 5636 5640 5644 5649 5652 5654 5657 5660 5663
5681 5675 5670 5664 5657 5650 5643 5634 5628 5623 5618 5614 5610 5608 5606 5604 5603 5602 5602 5602 5603 5603 5604 5604 5606 5607 5607 5608 5609 5611 5613 5616 5618 5620 5625 5629 5633 5637 5639 5642 5646 5649 5652
5672 5666 5660 5654 5647 5640 5633 5625 5619 5613 5608 5603 5599 5596 5595 5594 5593 5593 5593 5593 5594 5594 5594 5594 5594 5594 5594 5596 5597 5599 5602 5606 5608 5612 5615 5619 5621 5625 5629 5632 5636 5638 5637